Theta_e
326 325 322 316 314 308 302 300 300 299 298 298 297 297 297 297 297 297 297 297 298 298 299 299 298 298 298 305 304 308 308 307 305 303 304 312 314 315 311 309 310 310 311 314 315 316 316
327 326 322 318 313 311 303 300 299 299 298 297 297 297 297 296 296 297 297 297 298 298 299 299 298 298 298 306 308 306 306 306 305 305 306 312 314 313 313 313 311 312 312 312 313 314 314
326 324 321 314 311 309 304 302 300 299 298 297 297 296 296 296 296 297 297 297 298 298 298 298 298 298 300 301 307 309 309 308 307 306 305 305 306 307 309 311 314 314 312 313 312 312 312
325 320 316 312 311 310 308 302 299 300 298 297 296 296 296 296 296 297 297 297 298 299 299 298 299 301 304 306 309 307 307 308 310 310 310 308 305 305 306 308 311 311 311 312 313 313 314
324 320 316 311 310 309 305 301 300 300 300 297 296 296 296 296 296 296 297 298 299 302 302 300 302 309 314 310 310 307 309 309 310 310 311 310 310 307 305 305 308 310 311 312 312 312 312
325 319 315 310 309 307 304 301 301 300 298 297 296 295 295 295 296 296 297 299 303 303 305 306 308 311 310 309 306 307 307 306 306 305 305 307 310 307 303 303 307 310 311 311 312 312 312
324 317 313 309 308 306 303 302 301 298 301 299 295 295 295 295 295 298 299 303 303 306 308 309 309 308 308 309 307 304 304 308 308 307 302 304 307 310 304 304 305 307 308 308 308 310 311
321 316 311 309 307 304 303 300 302 303 300 297 295 294 295 295 295 302 301 303 301 301 302 301 301 305 305 304 304 303 306 308 307 305 303 303 303 306 309 308 307 307 306 306 308 310 311
319 314 310 308 305 304 302 303 303 299 296 296 294 294 294 295 298 302 303 301 301 301 302 302 304 305 306 305 304 305 307 308 307 307 307 306 306 308 308 309 310 310 308 307 308 310 309
316 312 309 306 305 303 303 303 301 299 297 294 294 294 294 296 303 302 302 301 300 302 304 308 306 306 308 307 306 306 307 306 307 306 306 306 307 308 307 308 307 306 309 309 308 310 310
312 309 307 305 305 304 302 301 301 300 294 294 293 293 294 294 301 302 300 301 298 305 313 308 307 307 307 306 306 305 304 303 302 302 302 302 303 305 306 307 308 308 308 311 309 310 310
310 308 305 305 304 302 302 301 299 297 293 293 293 293 299 300 302 302 299 297 305 310 313 305 307 306 304 304 303 302 302 303 302 302 301 301 305 306 307 308 307 307 309 312 312 311 311
308 306 304 303 302 302 301 299 296 293 293 292 293 293 296 298 302 302 296 304 308 311 305 303 302 302 301 301 302 302 304 303 302 302 304 305 306 306 307 307 308 309 309 313 314 315 314
305 304 303 301 300 301 299 295 293 293 292 293 293 294 297 298 294 295 303 304 306 306 302 301 300 301 301 302 302 302 302 302 302 305 307 307 307 306 307 307 310 309 310 314 315 316 315
303 301 300 301 301 298 296 295 293 292 292 293 295 300 301 297 294 301 304 306 304 301 300 299 299 299 300 300 300 300 300 300 302 307 306 306 304 304 304 308 311 312 313 310 315 317 319
300 300 299 299 298 295 296 295 292 292 292 296 300 301 301 295 295 304 304 305 302 300 299 299 298 299 299 299 299 300 302 302 303 305 305 306 305 304 306 308 312 313 313 315 316 319 320
300 299 299 300 297 298 297 292 292 292 293 299 300 301 302 296 301 304 302 304 300 298 299 298 298 298 299 299 300 300 300 302 302 305 304 303 305 305 308 311 313 313 313 314 316 317 322
299 299 298 297 297 296 294 292 292 293 293 299 301 301 298 296 303 304 301 300 299 299 299 300 299 300 300 300 300 300 301 301 302 303 302 305 306 307 307 308 311 313 313 315 314 317 317
299 299 298 297 296 294 292 292 293 292 298 300 302 300 297 302 302 301 300 299 299 300 300 300 301 301 300 301 301 301 302 303 303 303 303 304 306 304 306 312 312 314 313 314 316 315 318
298 297 296 296 296 294 292 292 292 294 299 301 302 300 299 301 296 300 300 301 300 300 300 300 299 300 301 301 302 302 302 303 303 303 304 304 306 304 305 308 309 311 312 315 316 316 319
297 297 296 296 294 293 292 291 292 294 299 300 301 302 301 301 299 298 299 300 300 300 300 299 300 301 301 301 301 301 302 302 303 303 304 304 307 307 306 306 308 309 311 315 317 315 317
296 297 296 294 294 295 293 292 291 296 299 299 299 301 297 301 299 297 300 300 300 300 300 299 301 300 300 300 302 303 303 303 304 305 307 306 308 310 312 312 312 315 314 312 310 310 310
296 296 294 293 294 295 293 292 291 296 299 299 299 298 299 299 298 298 300 301 299 299 299 300 300 301 301 301 302 301 301 302 302 303 304 308 309 311 313 312 312 315 311 307 305 304 306
295 294 293 293 293 295 292 289 292 297 298 299 298 299 300 298 298 300 300 300 300 301 295 300 301 301 301 302 303 303 303 302 303 304 305 308 310 310 310 310 313 308 306 305 303 300 300
293 293 293 293 295 294 291 292 294 297 297 297 297 298 299 297 300 300 300 301 301 301 299 300 301 302 302 302 304 305 307 307 308 308 308 308 309 311 312 313 310 306 303 302 307 301 298
292 292 294 295 295 291 292 293 294 296 296 296 296 296 298 299 299 300 299 300 298 297 299 302 301 304 303 303 305 307 308 309 308 308 308 309 309 310 310 311 310 303 299 300 302 300 297
294 294 293 293 293 292 293 294 293 295 296 297 297 296 297 297 299 299 298 298 299 299 298 301 299 302 302 302 306 307 308 308 309 310 306 306 306 307 308 308 304 297 298 300 298 300 295
295 294 294 293 293 293 294 294 292 294 295 296 297 296 297 297 297 298 300 299 299 299 295 299 299 301 299 301 302 304 307 307 308 305 306 303 306 304 305 304 303 295 297 298 298 295 293
294 294 294 293 293 293 293 292 294 295 295 296 297 296 296 295 296 298 296 298 295 298 299 299 301 301 300 298 300 301 306 305 306 306 304 303 305 301 301 299 295 293 293 292 292 292 291
Wind_Speed
42 42 40 38 33 27 24 21 21 20 18 17 16 15 15 16 16 14 14 14 14 14 15 16 17 16 13 6 15 13 13 13 13 9 10 8 15 17 10 8 21 17 17 26 28 31 32
46 44 43 39 35 30 23 22 21 20 18 18 17 16 16 15 14 14 14 14 15 16 16 16 16 14 10 5 4 7 11 13 12 7 14 13 15 19 21 16 11 14 20 22 29 28 26
50 46 44 38 31 29 27 24 21 19 19 18 16 16 16 14 14 13 13 14 15 16 16 14 14 12 14 25 11 9 13 15 13 11 17 17 19 19 19 12 18 23 14 17 19 14 11
50 50 43 35 32 29 25 24 22 20 19 18 16 16 15 14 13 12 13 14 14 15 13 11 10 8 12 8 8 17 12 11 9 12 13 13 23 25 14 17 19 15 8 9 12 15 21
52 51 47 35 34 28 27 26 23 20 19 20 17 16 14 12 11 11 12 14 13 13 11 6 6 5 11 6 9 7 6 7 9 12 9 13 15 24 16 5 9 7 15 16 20 10 15
55 54 46 39 34 30 29 24 23 21 21 18 16 15 13 10 9 10 11 12 9 12 6 6 4 7 12 7 5 10 12 14 18 18 19 16 14 7 2 6 16 4 10 14 18 22 15
62 55 48 41 37 35 27 25 22 20 18 16 15 13 10 8 6 6 9 5 5 4 8 12 10 13 13 14 20 16 17 15 13 13 6 16 10 14 9 14 19 17 19 21 19 13 13
58 55 48 42 40 31 26 24 21 21 20 17 13 10 8 6 2 6 11 5 6 8 14 22 29 34 33 30 16 16 13 7 7 6 6 6 20 14 12 17 19 22 25 25 22 21 17
62 54 47 44 35 28 27 25 25 24 20 16 12 8 7 3 3 6 5 7 7 10 4 17 13 14 5 8 9 12 11 11 7 9 8 13 11 12 16 20 23 22 20 19 19 16 8
61 55 51 41 33 30 28 26 21 18 17 14 10 8 5 3 3 5 5 5 11 9 3 4 4 2 4 2 3 8 8 15 13 15 12 13 11 17 20 21 19 21 17 21 20 19 8
58 51 43 37 34 30 27 23 21 19 15 12 10 7 5 5 5 7 5 10 4 3 3 9 5 6 3 6 11 4 26 26 13 15 13 20 15 19 23 23 20 23 19 19 21 17 3
54 47 37 36 34 30 27 24 22 17 15 13 10 8 8 7 5 5 5 2 4 1 6 4 6 3 4 13 17 24 29 28 31 17 18 19 24 6 10 20 24 23 18 7 15 3 9
54 42 41 38 33 28 25 22 20 16 14 10 8 7 6 7 5 7 1 3 2 3 2 6 9 9 13 13 14 15 8 8 6 6 8 11 13 14 19 23 22 16 16 4 4 3 11
45 47 43 38 31 23 20 21 18 14 11 9 8 8 5 3 3 2 5 2 3 3 6 8 11 11 6 9 8 14 13 9 12 6 4 5 11 2 9 13 15 18 10 5 5 5 8
45 39 33 33 28 23 21 17 18 14 12 11 11 10 3 5 3 7 2 2 3 6 9 11 11 6 7 18 14 13 14 13 8 4 1 4 10 19 20 15 17 6 6 18 11 7 3
32 31 27 25 21 20 20 18 16 15 13 14 13 8 4 5 3 6 3 3 3 9 9 7 4 5 11 12 10 9 7 9 14 5 4 4 14 7 12 15 7 1 3 2 6 2 4
32 28 28 23 20 21 18 17 15 13 14 12 11 5 5 1 3 3 2 2 4 10 4 3 7 9 10 11 8 8 6 14 9 5 4 6 6 13 13 4 7 2 1 6 8 4 2
30 26 21 17 19 18 17 16 15 15 16 13 4 3 3 5 2 4 2 2 1 2 7 7 4 7 7 9 13 12 13 11 15 3 5 6 5 7 17 18 7 13 10 12 3 2 4
29 23 19 20 19 17 18 17 17 17 17 10 4 5 4 5 1 2 3 3 3 3 5 7 5 8 13 10 9 6 11 12 12 3 4 3 3 5 9 2 3 4 9 6 4 6 3
23 22 20 19 17 17 17 17 16 17 13 7 2 2 3 4 2 2 4 4 6 12 7 13 12 12 8 10 10 7 11 6 8 5 11 3 6 10 7 6 8 6 17 11 5 4 1
20 20 18 15 17 19 17 16 15 16 12 8 3 2 2 2 1 6 2 1 5 4 4 11 4 10 11 5 14 6 8 6 6 12 3 3 7 12 19 21 15 15 20 15 10 4 3
23 20 16 16 18 16 14 14 15 17 11 7 4 1 3 6 7 3 1 3 5 3 2 6 6 11 11 11 13 12 10 7 6 4 6 3 5 7 20 18 15 6 12 19 12 15 10
22 19 17 18 17 14 13 11 16 17 11 6 4 3 2 9 5 4 4 5 4 6 5 7 8 11 11 10 15 21 19 20 17 14 12 4 3 4 8 20 15 11 17 20 19 20 13
18 16 15 17 18 14 10 15 19 16 13 10 6 3 1 2 4 6 3 6 4 5 5 4 9 6 7 20 25 13 20 21 18 17 14 4 4 2 3 3 7 7 18 23 25 17 15
18 18 20 21 16 12 15 17 18 14 11 11 8 5 5 2 10 2 5 5 11 3 6 4 12 15 16 11 4 6 2 2 7 10 9 10 2 4 3 4 6 12 13 10 10 10 16
20 25 19 16 13 12 16 15 16 14 12 10 8 4 4 2 4 11 8 11 3 4 3 4 22 6 5 1 2 2 3 1 4 7 5 2 6 3 2 5 4 3 21 23 8 6 17
19 17 13 13 11 13 15 12 13 14 12 9 7 5 4 4 1 10 3 3 7 9 3 7 18 9 14 3 3 3 4 8 4 5 6 5 5 7 5 4 4 16 23 21 6 3 15
16 12 11 11 15 14 13 11 13 15 12 8 5 4 4 1 9 2 3 5 11 9 2 13 8 10 6 7 4 3 2 4 2 10 4 7 5 5 4 5 2 30 7 6 6 16 14
15 12 12 15 16 12 11 12 14 13 9 10 5 1 3 3 5 10 14 7 6 6 7 6 2 6 6 3 3 3 2 3 8 3 8 5 5 3 5 4 7 13 16 15 15 17 14
Wind_Direction
274 274 270 267 264 259 258 257 262 262 263 266 271 274 280 285 289 293 295 299 303 303 304 304 302 301 309 291 267 282 281 275 282 285 273 242 259 256 236 238 245 253 251 256 259 253 255
268 268 267 263 257 256 247 251 256 258 263 267 269 272 276 279 285 289 293 298 300 301 301 300 298 294 288 269 300 288 290 286 282 281 284 270 272 281 283 262 246 261 264 262 261 263 265
265 264 260 251 247 247 239 242 245 254 266 264 267 271 274 277 285 289 292 294 295 297 298 300 290 284 263 254 202 242 273 286 288 259 271 263 274 299 301 305 290 272 285 289 273 269 266
262 252 245 238 236 236 237 235 235 240 256 265 266 268 269 278 284 290 292 293 296 298 301 290 273 268 261 263 236 245 275 263 273 275 265 282 270 288 293 299 300 290 279 270 267 250 262
261 248 241 232 220 225 223 227 237 239 247 254 258 260 263 275 286 293 296 299 297 292 301 257 244 233 264 300 259 288 239 266 283 273 281 279 268 265 281 315 293 240 255 254 278 250 262
254 241 233 212 216 212 221 226 229 240 247 250 252 257 268 276 292 306 317 304 289 280 256 257 207 255 257 230 348 272 274 286 286 285 295 282 257 237 192 200 237 256 234 255 252 259 251
248 232 225 212 207 210 220 216 224 235 244 248 243 250 267 283 305 349 347 3 335 317 216 218 198 226 259 259 287 292 290 280 277 253 251 272 256 231 225 224 246 261 268 276 269 278 246
241 227 215 207 207 210 207 210 213 223 240 242 241 250 257 278 340 60 37 63 27 326 304 279 258 253 257 267 273 287 268 240 255 246 235 252 255 273 241 239 246 246 249 258 271 275 275
227 215 208 205 205 198 202 202 212 226 231 239 236 247 240 243 119 69 37 35 312 313 269 298 252 244 266 206 239 267 282 269 247 265 255 252 267 283 266 260 252 249 257 266 267 267 247
222 210 204 199 192 194 200 199 218 217 220 217 225 220 235 167 134 95 124 292 318 340 346 236 171 182 123 180 260 291 286 286 273 266 272 269 287 289 287 280 274 276 258 260 267 269 251
205 196 193 189 189 191 188 212 212 218 209 207 209 204 201 154 137 68 275 293 337 15 341 150 104 155 103 158 327 282 316 317 298 286 279 268 266 267 270 277 289 277 279 299 267 262 252
198 193 185 186 183 184 196 206 215 214 203 201 193 181 159 129 120 242 298 43 91 70 248 131 135 95 13 343 331 309 293 280 272 282 278 274 279 252 274 290 281 283 287 217 279 293 247
190 184 178 183 182 186 202 212 204 196 195 188 175 169 168 163 191 242 267 105 77 213 220 36 13 2 336 316 289 288 343 335 314 311 299 315 297 294 287 288 282 282 265 258 240 210 247
175 173 175 174 179 196 217 194 180 189 185 172 162 145 151 141 318 156 135 116 199 346 19 24 357 322 299 317 345 345 338 317 316 4 337 317 313 2 326 313 283 262 214 201 207 214 256
169 166 170 172 182 198 175 176 172 174 170 159 139 124 102 29 291 148 91 108 354 26 19 357 354 353 349 347 337 338 332 301 332 57 69 306 273 320 287 310 286 194 184 199 268 309 232
156 158 155 165 175 168 164 172 164 164 161 147 134 130 178 349 165 123 86 258 55 51 17 4 347 333 321 317 317 331 317 305 343 52 96 291 301 293 306 355 292 235 105 131 233 275 248
152 157 165 168 178 158 172 160 156 157 160 150 144 138 167 97 135 89 142 242 37 11 25 331 298 299 301 307 302 293 286 316 289 352 9 290 247 287 299 212 239 41 176 213 217 216 280
146 147 152 173 164 166 166 156 158 160 155 152 161 102 134 178 33 241 166 34 24 308 278 267 266 284 302 313 305 306 296 286 307 87 309 28 273 277 280 269 269 249 211 213 120 257 233
148 151 159 161 162 169 158 161 159 159 155 157 128 124 106 137 95 283 86 266 190 278 340 325 325 336 324 315 308 292 298 306 33 28 357 8 275 318 313 238 234 273 208 205 139 36 316
144 149 162 164 164 157 159 160 160 163 157 142 78 89 132 172 226 345 38 360 355 348 337 354 319 297 326 305 300 285 277 295 341 205 271 259 223 224 239 289 341 321 318 191 120 156 34
156 158 155 155 155 157 159 157 158 162 150 120 95 162 151 197 81 91 87 276 289 327 6 317 306 339 328 301 311 275 325 322 307 303 282 219 260 227 241 251 274 279 286 68 63 57 305
168 166 160 149 151 157 157 155 158 156 144 116 108 42 114 116 126 125 186 280 292 338 357 305 305 320 315 294 287 307 330 328 262 313 336 234 286 291 274 211 225 237 88 85 49 31 68
161 164 154 156 160 157 153 160 160 156 157 102 93 121 69 178 188 135 198 227 243 136 271 297 316 307 294 288 315 287 273 261 253 274 287 256 276 309 94 114 148 81 97 91 80 41 41
169 172 176 170 161 157 149 150 156 157 154 113 67 63 46 236 195 206 110 335 308 159 199 263 292 286 268 311 317 302 257 247 249 262 258 252 268 275 275 2 55 88 60 88 79 49 39
148 157 150 152 158 153 147 151 157 155 147 130 95 98 36 334 338 61 51 9 332 230 206 214 291 279 298 324 325 310 293 335 251 234 203 199 271 285 102 56 150 34 9 345 351 54 35
134 141 140 145 155 151 152 154 165 157 137 125 129 79 72 355 12 341 348 15 0 328 344 317 345 350 287 274 262 263 24 209 349 339 21 312 252 183 337 63 63 14 326 317 298 55 35
142 139 147 164 168 166 162 159 166 171 159 136 119 106 81 11 333 354 8 309 315 344 319 326 341 347 13 332 325 348 6 358 16 11 345 359 3 26 13 90 76 351 322 323 67 20 53
154 149 154 161 171 172 168 165 165 174 175 167 109 119 123 241 279 261 301 316 322 357 24 319 352 9 358 21 4 336 317 360 49 52 38 36 349 22 358 62 13 359 9 63 76 63 67
163 160 160 156 165 176 184 175 163 164 165 160 120 184 321 285 265 272 286 293 262 254 307 340 299 15 21 23 359 307 323 340 359 38 15 41 357 54 19 87 74 46 58 57 72 72 62